Regional Weather Roundup
Issued by NWS

Home | Current Version | Previous Version | Graphics & Text | Print | Product List | Glossary On
Versions: 1 2 3 4 5 6 7 8 9 10 11 12 13 14 15 16 17 18 19 20 21 22 23 24 25 26 27 28 29 30 31 32 33 34 35 36 37 38 39 40 41 42 43 44 45 46 47 48 49 50
000
ASUS45 KPSR 040210
RWRAZ

ARIZONA HOURLY REGIONAL WEATHER ROUNDUP
NATIONAL WEATHER SERVICE PHOENIX AZ
700 PM MST TUE MAY 03 2016

NOTE: FAIR INDICATES FEW OR NO CLOUDS BELOW 12,000 FEET WITH NO
SIGNIFICANT WEATHER AND/OR OBSTRUCTIONS TO VISIBILITY.

AZZ001>003-036-040300-
NORTHWEST ARIZONA

CITY           SKY/WX    TMP DP  RH WIND       PRES   REMARKS
BULLHEAD CITY  PTCLDY    88  37  16 N8        29.86R
KINGMAN        CLEAR     78  31  17 SW9       29.98S
$$

AZZ004>008-015-016-018-040300-
NORTH CENTRAL ARIZONA

CITY           SKY/WX    TMP DP  RH WIND       PRES   REMARKS
GRAND CANYON   CLEAR     62  23  22 E8        30.23R
WILLIAMS       CLEAR     61  25  25 SE10G18   30.28R
PRESCOTT       CLEAR     71  31  22 NE9       30.10R
FLAGSTAFF      CLEAR     55  30  38 E3        30.24R
PAYSON         CLEAR     70  30  23 NE10      30.12R
PAGE           CLEAR     71  27  19 NE6       30.11S
$$

AZZ009>014-017-040300-
NORTHEAST ARIZONA

CITY           SKY/WX    TMP DP  RH WIND       PRES   REMARKS
WINSLOW        CLEAR     71  27  19 E5        30.13R
SAINT JOHNS    CLEAR     67  29  24 NE6       30.14R
WINDOW ROCK    CLEAR     62  24  23 E6        30.24R
SHOW LOW       PTCLDY    61  27  27 NE7       30.19S
$$

AZZ023-040300-
GREATER PHOENIX AREA

CITY           SKY/WX    TMP DP  RH WIND       PRES   REMARKS
PHOENIX        PTCLDY    90  31  12 S5        29.81S
BUCKEYE        CLEAR     84  37  18 SW6       29.85S
GLENDALE       PTCLDY    91  28  10 SW5       29.84S
LUKE AFB       CLEAR     90  33  13 W6        29.82S
DEER VALLEY    CLEAR     88  30  12 SW12      29.84R
SCOTTSDALE     CLEAR     89  26  10 SW7       29.85S
MESA-FALCON    CLEAR    N/A N/A N/A SW7       29.82R
MESA-GATEWAY   CLEAR    N/A N/A N/A SW9       29.85R
CHANDLER       PTCLDY    90  30  12 SW7       29.84R
$$

AZZ027-028-040300-
SOUTHWEST MARICOPA COUNTY AND PINAL COUNTY

CITY           SKY/WX    TMP DP  RH WIND       PRES   REMARKS
CASA GRANDE    CLEAR     88  30  12 W6        29.88S
GILA BEND      CLEAR     90  30  12 W7        29.81S
$$

AZZ503-504-507>509-040300-
SOUTHEAST ARIZONA

CITY           SKY/WX    TMP DP  RH WIND       PRES   REMARKS
TUCSON         CLEAR     87  22   9 N7        29.92R
DAVIS-MONTHAN  CLEAR     84  23  10 NW8       29.90R
NOGALES        CLEAR     80  23  12 NW5       29.97R
SIERRA VISTA   CLEAR     77  20  12 N8        30.04R
DOUGLAS        CLEAR     77  17  10 E7        29.99R
SAFFORD        CLEAR     83  25  12 CALM      29.94R
$$

AZZ020-021-025-026-031-040300-
SOUTHWEST ARIZONA

CITY           SKY/WX    TMP DP  RH WIND       PRES   REMARKS
YUMA           PTCLDY    89  40  17 W8        29.79S
$$

CAZ031-033-041-043-047-048-061-040300-
SOUTHERN CALIFORNIA

CITY           SKY/WX    TMP DP  RH WIND       PRES   REMARKS
DOWNTOWN L.A.  PTCLDY    63  55  75 W7        29.90R
L.A. AIRPORT   CLOUDY    60  55  83 W14       29.92R
SAN DIEGO      MOCLDY    65  55  70 W7        29.94S
BURBANK        PTCLDY    73  52  47 SE9       29.88S
ONTARIO        MOCLDY    73  53  49 SW14      29.89R
RIVERSIDE      PTCLDY    75  51  43 W12G18    29.88R
PALM SPRINGS   PTCLDY    91  31  11 SE6       29.81F
EL CENTRO NAS  PTCLDY    91  31  11 S5        29.80F
IMPERIAL       CLEAR     91  37  15 W3        29.78S
BLYTHE         CLEAR     92  29  10 NW3       29.81S
NEEDLES        PTCLDY    90  31  12 CALM      29.84S
$$

NVZ020-UTZ003-040300-
SOUTHERN NEVADA-UTAH

CITY           SKY/WX    TMP DP  RH WIND       PRES   REMARKS
LAS VEGAS      MOCLDY    82  28  14 NW7       29.91S
SALT LAKE CITY PTCLDY    71  32  23 NW10      30.12S
$$

NMZ009-TXZ055-040300-
NEW MEXICO-WEST TEXAS

CITY           SKY/WX    TMP DP  RH WIND       PRES   REMARKS
ALBUQUERQUE    PTCLDY    70  25  18 E9        30.18R
EL PASO        PTCLDY    77  25  14 NE9       30.05R
$$


........................KEY........................
SKY/WX - SKY CONDITION/WEATHER
TMP    - TEMPERATURE IN FAHRENHEIT
DP     - DEW POINT IN FAHRENHEIT
RH     - RELATIVE HUMIDITY IN PERCENT
WIND   - DIRECTION AND SPEED IN MILES PER HOUR (MPH)
VRB    - VARIABLE WIND DIRECTION
PRES   - MEAN SEA LEVEL PRESSURE IN INCHES OF MERCURY
         F - FALLING PRESSURE   R - RISING PRESSURE
         S - STEADY PRESSURE
VSB    - VISIBILITY IN MILES
HX     - HEAT INDEX IN FAHRENHEIT
WCI    - WIND CHILL INDEX IN FAHRENHEIT
TC     - TEMPERATURE IN CELSIUS WHICH IS ALSO KNOWN AS
         TEMPERATURE IN CENTIGRADE
AFB    - AIR FORCE BASE
         LUKE AFB IS LUKE AIR FORCE BASE
         DAVIS-MONTHAN IS DAVIS-MONTHAN AIR FORCE BASE
NAS    - NAVAL AIR STATION
         EL CENTRO NAS IS EL CENTRO NAVAL AIR STATION
N/A    - NOT AVAILABLE




USA.gov is the U.S. government's official web portal to all federal, state and local government web resources and services.